Weather in Weingarten

Germany     47°48′46″N   9°38′16″E
temp.,
°C
wind,
m/s
gust,
m/s
humid.,
%
clouds,
%
prec.,
mm/h
press.,
hPa
HPBL,
m
13 april, tue
tue1323:00−3ese1198100 0.0 103111
02:00−3ese0098100 0.0 103112
05:00−2sse1195100 0.1 103010
08:00−1ne019327 0.1 103185
11:00+4nne346456 0.3 10301209
14:00+6nne4444100 0.8 10281890
17:00+7nne444290 0.3 10271957
20:00+2nne49683 0.3 1029367
14 april, wed
wed1423:00−2ene248653 0.0 103169
02:00−3ne22905 0.0 103037
05:00−4ene22945 0.0 103020
08:00−1ene23765 0.0 1029186
11:00+6ene564150 0.0 10262015
14:00+8nne5533100 0.0 10242469
17:00+7nne554097 0.0 10231997
20:00+3nne4962100 0.1 1025395
15 april, thu
thu1523:00−1ene2878100 0.0 1027164
02:00−2ne2384100 0.0 102652
05:00−3ene1190100 0.0 102611
08:00−1ene1175100 0.0 1027179
11:00+5ne345884 0.1 10251391
14:00+7ne4449100 1.1 10231760
17:00+7ne453994 0.3 10212004
20:00
16 april, fri
fri1623:000ne412818 0.0 1024353
02:00−1ene310840 0.0 1023309
05:00−4ne37965 0.0 1023145
08:00−1ne38805 0.0 1023290
11:00+6ne565013 0.0 10211302
14:00+9ne553886 0.0 10182052
17:00+9nne664081 0.0 10171767
20:00+4ne511665 0.0 1021577
17 april, sat
sat1723:000ne512845 0.0 1022444
02:00−2ne39915 0.0 1022248
05:00−4ne24975 0.0 102269
08:00−1ne248510 0.0 1021209
11:00+7ne355372 0.0 10191357
14:00+9ne5649100 0.0 10171559
17:00+10ne584996 0.0 10151775
20:00+6nne5117118 0.0 1017604